Weather History for KMTH - July, 2013

Change the Weather History Date:

Thursday, July 4, 2013

  Actual Average Record
Temperature  
Mean Temperature 86 °F 85 °F  
Max Temperature 91 °F 91 °F 95 °F (1998)
Min Temperature 80 °F 79 °F 73 °F (1998)
Degree Days  
Heating Degree Days 0 0  
Month to date heating degree days 0 0  
Since 1 June heating degree days 0 0  
Since 1 July heating degree days 0 0  
Cooling Degree Days 21 20  
Month to date cooling degree days 81 80  
Year to date cooling degree days 2527 2217  
Since 1 June cooling degree days 697 674  
Growing Degree Days 35 (Base 50)    
Moisture  
Dew Point 73 °F    
Average Humidity 67    
Maximum Humidity 74    
Minimum Humidity 59    
Precipitation  
Precipitation 0.06 in 0.15 in 1.49 in (1998)
Month to date precipitation 0.87 0.61  
Year to date precipitation 29.88 18.16  
Snow  
Snow 0.00 in - - ()
Month to date snowfall 0.0  
Since 1 June snowfall 0.0  
Since 1 July snowfall 0.0  
Snow Depth 0.00 in    
Sea Level Pressure  
Sea Level Pressure 30.08 in    
Wind  
Wind Speed 10 mph (ESE)    
Max Wind Speed 17 mph    
Max Gust Speed 28 mph    
Visibility 9 miles    
Events Rain , Thunderstorm    
T = Trace of Precipitation, MM = Missing Value Source: NWS Daily Summary

Daily Weather History Graph

Daily Weather History Graph

Search for Another Location

Airport or City:

Trip Planner

Search our weather history database for the weather conditions in past years. The results will help you decide how hot, cold, wet, or windy it might be!

Date:

Astronomy

Jul. 04, 2013 Rise Set
Actual Time 6:39 AM EDT 8:17 PM EDT
Civil Twilight 6:14 AM EDT 8:42 PM EDT
Nautical Twilight 5:43 AM EDT 9:13 PM EDT
Astronomical Twilight 5:11 AM EDT 9:45 PM EDT
Moon 3:47 AM EDT 5:26 PM EDT
Length of Visible Light 14h 28m
Length of Day
13h 37m
Waning Crescent, 11% of the Moon is Illuminated
Jul 4
Waning Crescent
Jul 8
New
Jul 15
First Quarter
Jul 22
Full
Jul 29
Last Quarter

Hourly Weather History & Observations

Time (EDT) Temp. Heat Index Dew Point Humidity Pressure Visibility Wind Dir Wind Speed Gust Speed Precip Events Conditions
12:53 AM 82.9 °F 89.4 °F 73.9 °F 74% 30.08 in 10.0 mi ESE 8.1 mph 16.1 mph N/A   Clear
1:53 AM 84.0 °F 90.2 °F 73.0 °F 69% 30.06 in 10.0 mi East 11.5 mph 17.3 mph N/A   Partly Cloudy
2:53 AM 84.0 °F 91.2 °F 73.9 °F 72% 30.04 in 10.0 mi East 9.2 mph 17.3 mph N/A   Clear
3:53 AM 84.0 °F 90.2 °F 73.0 °F 69% 30.04 in 10.0 mi ESE 12.7 mph 21.9 mph N/A   Scattered Clouds
4:53 AM 84.0 °F 91.2 °F 73.9 °F 72% 30.04 in 10.0 mi ESE 9.2 mph 20.7 mph N/A   Scattered Clouds
5:53 AM 84.0 °F 91.2 °F 73.9 °F 72% 30.04 in 10.0 mi ESE 10.4 mph 18.4 mph N/A   Scattered Clouds
6:53 AM 84.9 °F 92.1 °F 73.9 °F 69% 30.05 in 10.0 mi ESE 10.4 mph 19.6 mph N/A   Partly Cloudy
7:53 AM 84.0 °F 90.2 °F 73.0 °F 69% 30.07 in 10.0 mi ESE 11.5 mph 20.7 mph 0.01 in   Partly Cloudy
8:53 AM 84.0 °F 89.0 °F 71.1 °F 65% 30.10 in 4.0 mi SE 15.0 mph 27.6 mph 0.01 in   Haze
8:56 AM 82.4 °F 87.2 °F 71.6 °F 70% 30.10 in 1.5 mi SE 15.0 mph 27.6 mph 0.03 in Rain Rain
9:05 AM 80.6 °F 84.6 °F 71.6 °F 74% 30.10 in 3.0 mi East 12.7 mph 21.9 mph 0.03 in Rain Light Rain
9:53 AM 84.0 °F 91.2 °F 73.9 °F 72% 30.11 in 10.0 mi ESE 11.5 mph 19.6 mph 0.03 in   Clear
10:53 AM 86.0 °F 92.2 °F 72.0 °F 63% 30.11 in 10.0 mi East 12.7 mph 20.7 mph N/A   Clear
11:18 AM 87.8 °F 95.6 °F 73.4 °F 62% 30.10 in 10.0 mi ESE 9.2 mph 17.3 mph N/A Thunderstorm Clear
11:33 AM 89.6 °F 99.8 °F 75.2 °F 62% 30.11 in 10.0 mi ESE 8.1 mph - N/A   Clear
11:53 AM 87.1 °F 95.4 °F 73.9 °F 65% 30.11 in 10.0 mi ESE 10.4 mph 18.4 mph N/A   Partly Cloudy
12:53 PM 90.0 °F 100.2 °F 75.0 °F 61% 30.10 in 10.0 mi ESE 10.4 mph 18.4 mph N/A   Partly Cloudy
1:53 PM 90.0 °F 100.2 °F 75.0 °F 61% 30.09 in 10.0 mi ESE 10.4 mph 20.7 mph N/A   Partly Cloudy
2:53 PM 90.0 °F 99.0 °F 73.9 °F 59% 30.08 in 10.0 mi East 9.2 mph 18.4 mph N/A   Scattered Clouds
3:53 PM 90.0 °F 99.0 °F 73.9 °F 59% 30.07 in 10.0 mi ESE 10.4 mph 20.7 mph N/A   Partly Cloudy
4:53 PM 90.0 °F 97.9 °F 73.0 °F 57% 30.05 in 10.0 mi ESE 11.5 mph 20.7 mph N/A   Partly Cloudy
5:53 PM 88.0 °F 95.6 °F 73.0 °F 61% 30.04 in 10.0 mi ESE 6.9 mph - N/A   Clear
6:53 PM 88.0 °F 93.8 °F 71.1 °F 57% 30.06 in 10.0 mi East 10.4 mph 16.1 mph N/A   Clear
7:53 PM 86.0 °F 91.5 °F 71.1 °F 61% 30.06 in 10.0 mi ESE 10.4 mph 16.1 mph N/A   Clear
8:53 PM 86.0 °F 92.2 °F 72.0 °F 63% 30.08 in 10.0 mi ESE 6.9 mph - N/A   Partly Cloudy
9:53 PM 84.9 °F 91.4 °F 73.0 °F 67% 30.10 in 10.0 mi East 8.1 mph 17.3 mph N/A   Partly Cloudy
10:53 PM 84.9 °F 91.4 °F 73.0 °F 67% 30.11 in 8.0 mi ESE 9.2 mph 16.1 mph 0.01 in Rain Light Rain
11:53 PM 82.9 °F 88.0 °F 72.0 °F 69% 30.12 in 10.0 mi SSE 10.4 mph 19.6 mph 0.00 in   Clear